Location: Unspecified
(0.0000°N, 0.0000°E)
Time: 08:25:19
(UTC+00:00)

SR - All Passes

Search period start: 24 August 2016 00:00
Search period end: 03 September 2016 00:00
Orbit: 585 x 873 km, 66.7° (Epoch: 23 August)

Date Brightness Start Highest point End Pass type
(mag) Time Alt. Az. Time Alt. Az. Time Alt. Az.
24 Aug - 03:01:11 10° NNE 03:05:08 25° ENE 03:09:22 10° SE visible
24 Aug - 04:43:33 10° WNW 04:47:00 19° WSW 04:50:39 10° SSW visible
24 Aug - 15:27:26 10° SSW 15:32:42 69° ESE 15:37:30 10° NNE daylight
25 Aug - 03:52:57 10° NW 03:57:38 48° WSW 04:02:45 10° S visible
25 Aug - 14:39:01 10° SSE 14:43:23 26° ESE 14:47:26 10° NE daylight
25 Aug - 16:21:45 10° WSW 16:25:09 18° WNW 16:28:22 10° NNW daylight
26 Aug - 03:03:36 10° N 03:08:23 64° ENE 03:13:38 10° SSE night (unlit)
26 Aug - 15:31:01 10° SW 15:36:01 47° WNW 15:40:36 10° N daylight
27 Aug - 02:15:21 10° NNE 02:19:14 24° ENE 02:23:24 10° SE night (unlit)
27 Aug - 03:57:28 10° WNW 04:01:05 20° WSW 04:04:55 10° SSW night (unlit)
27 Aug - 14:41:35 10° SSW 14:46:48 64° ESE 14:51:33 10° NNE daylight
28 Aug - 03:06:59 10° NW 03:11:44 51° WSW 03:16:55 10° S night (unlit)
28 Aug - 13:53:16 10° SSE 13:57:29 24° ESE 14:01:24 10° ENE daylight
28 Aug - 15:35:44 10° WSW 15:39:15 19° WNW 15:42:35 10° NNW daylight
29 Aug - 02:17:42 10° N 02:22:29 60° ENE 02:27:44 10° SSE night (unlit)
29 Aug - 14:45:06 10° SW 14:50:06 49° WNW 14:54:42 10° N daylight
30 Aug - 01:29:31 10° NNE 01:33:20 23° ENE 01:37:25 10° ESE night (unlit)
30 Aug - 03:11:24 10° WNW 03:15:10 21° WSW 03:19:11 10° SSW night (unlit)
30 Aug - 13:55:44 10° S 14:00:54 60° ESE 14:05:36 10° NNE daylight
31 Aug - 02:21:01 10° NNW 02:25:49 54° WSW 02:31:05 10° S night (unlit)
31 Aug - 13:07:30 10° SSE 13:11:34 23° ESE 13:15:21 10° ENE daylight
31 Aug - 14:49:43 10° WSW 14:53:21 20° WNW 14:56:47 10° NNW daylight
01 Sep - 01:31:47 10° N 01:36:35 57° ENE 01:41:50 10° SSE night (unlit)
01 Sep - 13:59:11 10° SSW 14:04:12 53° WNW 14:08:48 10° N daylight
02 Sep - 00:43:42 10° NNE 00:47:26 22° ENE 00:51:25 10° ESE night (unlit)
02 Sep - 02:25:20 10° WNW 02:29:15 23° WSW 02:33:26 10° SSW night (unlit)
02 Sep - 13:09:53 10° S 13:14:59 56° ESE 13:19:38 10° NNE daylight
